PORT of AJACCIO

Država: France Država: France (FR)
Širina / Dužina: 41.925915° / 8.742398° Prikaži na mapi Prikaži na mapi
Lokalno vreme:  UTC +2
UN/LOCODE: FRAJA
Plovilo je trenutno u luci: 7
Očekivani dolasci: 5

Skorašnji dolasci i odlasci


Ime plovila
Dolazak (UTC)
Dolazak (LT)
Odlazak (UTC)
Odlazak (LT)
Vessel Type: Remorker, Pilot  MISTRAL 2014-09-20 20:46:00 2014-09-20 22:46:00
Vessel Type: Putnički brodovi  MEGA EXPRESS FOUR 2014-09-20 19:39:00 2014-09-20 21:39:00 2014-09-20 20:45:00 2014-09-20 22:45:00
Vessel Type: Remorker, Pilot  MISTRAL 2014-09-20 19:39:00 2014-09-20 21:39:00 2014-09-20 20:45:00 2014-09-20 22:45:00
Vessel Type: Remorker, Pilot  MISTRAL 2014-09-20 18:03:00 2014-09-20 20:03:00 2014-09-20 18:32:00 2014-09-20 20:32:00
Vessel Type: Remorker, Pilot  MISTRAL 2014-09-20 17:08:00 2014-09-20 19:08:00 2014-09-20 17:58:00 2014-09-20 19:58:00
Vessel Type: Putnički brodovi  EXCELSIOR 2014-09-20 16:52:00 2014-09-20 18:52:00 2014-09-20 17:57:00 2014-09-20 19:57:00
Vessel Type: Putnički brodovi  COSTA MEDITERRANEA 2014-09-20 11:20:00 2014-09-20 13:20:00 2014-09-20 17:21:00 2014-09-20 19:21:00
Vessel Type: Remorker, Pilot  MISTRAL 2014-09-20 16:29:00 2014-09-20 18:29:00 2014-09-20 17:05:00 2014-09-20 19:05:00
Vessel Type: Putnički brodovi  JEAN NICOLI 2014-09-20 05:15:00 2014-09-20 07:15:00 2014-09-20 17:03:00 2014-09-20 19:03:00
Vessel Type: Remorker, Pilot  MISTRAL 2014-09-20 14:45:00 2014-09-20 16:45:00 2014-09-20 16:27:00 2014-09-20 18:27:00

Očekivani dolasci


Ime plovila
Scheduled Arrival (UTC)
Planirani dolazak (lokalno vreme)
Procenjeno vreme dolaska (UTC)
Procenjeno vreme dolaska (lokalno)
Vessel Type: Jahte i drugi  ZZ 2014-09-20 21:00:00 2014-09-20 23:00:00 2014-09-20 19:22:00 2014-09-20 21:22:00
Vessel Type: Putnički brodovi  KALLISTE 2014-09-21 05:25:00 2014-09-21 07:25:00 2014-09-21 05:21:00 2014-09-21 07:21:00
Vessel Type: Putnički brodovi  DANIELLE CASANOVA 2014-09-21 05:30:00 2014-09-21 07:30:00
Vessel Type: Putnički brodovi  EMERALD PRINCESS 2014-09-21 07:00:00 2014-09-21 09:00:00 2014-09-21 06:41:00 2014-09-21 08:41:00
Vessel Type: Tankeri  SICHEM RIO 2014-09-22 18:00:00 2014-09-22 20:00:00

Wind Forecast


    
Vreme (UTC)
Brzina
Direction
Temperature
2014-09-21 00:00:00 4 knots 69° 24°C
2014-09-21 03:00:00 4 knots 79° 24°C
2014-09-21 06:00:00 4 knots 57° 23°C
2014-09-21 09:00:00 5 knots 294° 23°C
2014-09-21 12:00:00 8 knots 292° 23°C
2014-09-21 15:00:00 9 knots 305° 22°C
2014-09-21 18:00:00 5 knots 339° 22°C
2014-09-21 21:00:00 6 knots 23°C
2014-09-22 00:00:00 6 knots 327° 23°C
2014-09-22 03:00:00 4 knots 330° 23°C
2014-09-22 06:00:00 3 knots 341° 22°C
2014-09-22 09:00:00 6 knots 270° 23°C
2014-09-22 12:00:00 8 knots 271° 22°C
2014-09-22 15:00:00 8 knots 299° 22°C
2014-09-22 18:00:00 4 knots 323° 21°C
2014-09-22 21:00:00 2 knots 20° 22°C
2014-09-23 00:00:00 5 knots 76° 21°C